FW2237 Weather Reports


time (UTC)temp
C
wind
direction
speed
KPH
gust
KPH
rain 1hr
cm
rain 24hr
cm
rain mn
cm
humidity
%
barometer
mb
20260507141552 22 127 0.0 6.4 0.00 0.00 0.00 62 972.8
20260507140034 21 168 0.0 11.3 0.00 0.00 0.00 63 972.7
20260507134530 21 169 4.8 12.9 0.00 0.00 0.00 61 972.9
20260507133033 22 83 0.0 9.7 0.00 0.00 0.00 61 973.1
20260507131536 22 122 3.2 8.0 0.00 0.00 0.00 59 973.1
20260507130038 22 86 3.2 11.3 0.00 0.00 0.00 59 973.4
20260507124527 22 100 4.8 14.5 0.00 0.00 0.00 58 973.5
20260507123023 22 134 0.0 9.7 0.00 0.00 0.00 56 973.6
20260507121523 22 1 3.2 11.3 0.00 0.00 0.00 57 973.7
20260507120022 22 132 4.8 11.3 0.00 0.00 0.00 58 973.8
20260507114522 22 126 1.6 14.5 0.00 0.00 0.00 59 973.6
20260507113019 22 53 3.2 11.3 0.00 0.00 0.00 57 973.7
20260507111518 22 115 4.8 14.5 0.00 0.00 0.00 56 973.6
20260507110021 22 131 3.2 16.1 0.00 0.00 0.00 57 973.8
20260507104516 22 96 4.8 17.7 0.00 0.00 0.00 56 974.1
20260507103016 22 166 8.0 16.1 0.00 0.00 0.00 53 974.0
20260507101515 23 198 1.6 14.5 0.00 0.00 0.00 54 974.0
20260507100011 22 111 3.2 16.1 0.00 0.00 0.00 53 974.0
20260507094509 22 140 4.8 12.9 0.00 0.00 0.00 51 973.9
20260507093009 22 342 3.2 17.7 0.00 0.00 0.00 51 974.1
20260507091512 22 94 3.2 17.7 0.00 0.00 0.00 53 974.0
20260507090007 21 124 3.2 14.5 0.00 0.00 0.00 52 974.0
20260507084505 21 206 4.8 22.5 0.00 0.00 0.00 53 974.1
20260507083003 21 133 4.8 14.5 0.00 0.00 0.00 53 974.0
20260507081502 21 82 6.4 11.3 0.00 0.00 0.00 53 974.2
20260507080003 21 128 3.2 14.5 0.00 0.00 0.00 55 974.2
20260507074600 21 151 3.2 11.3 0.00 0.00 0.00 56 974.5
20260507073059 21 151 1.6 6.4 0.00 0.00 0.00 54 974.4
20260507071605 21 12 0.0 6.4 0.00 0.00 0.00 53 974.2
20260507070104 21 346 0.0 6.4 0.00 0.00 0.00 54 974.3
20260507064626 20 125 0.0 8.0 0.00 0.00 0.00 52 974.2
20260507063058 20 207 0.0 8.0 0.00 0.00 0.00 54 974.3
20260507061551 20 102 0.0 8.0 0.00 0.00 0.00 54 974.3
20260507060109 20 90 0.0 4.8 0.00 0.00 0.00 53 974.2
20260507054551 18 213 1.6 8.0 0.00 0.00 0.00 55 974.1
20260507053041 17 164 0.0 8.0 0.00 0.00 0.00 60 974.2
20260507051547 14 141 0.0 9.7 0.00 0.00 0.00 71 974.1
20260507050044 -17 0.0 0.0 0.00 0.00 0.00 974.2
20260507044532 -17 0.0 0.0 0.00 0.00 0.00 974.2
20260507043028 -17 0.0 0.0 0.00 0.00 0.00 974.2
20260507041527 -17 0.0 0.0 0.00 0.00 0.00 974.3
20260507040019 -17 0.0 0.0 0.00 0.00 0.00 974.4
20260507034514 -17 276 0.0 1.6 0.00 0.00 0.00 974.5
20260507033011 9 274 0.0 1.6 0.00 0.00 0.00 87 974.6
20260507031510 9 270 0.0 1.6 0.00 0.00 0.00 86 974.8
20260507030016 10 271 0.0 0.0 0.00 0.00 0.00 85 975.0
20260507024510 10 272 0.0 0.0 0.00 0.03 0.00 85 975.0
20260507023100 11 268 0.0 0.0 0.00 0.03 0.00 84 975.2
20260507021556 11 269 0.0 0.0 0.00 0.03 0.00 81 975.4
20260507020103 12 267 0.0 0.0 0.00 0.03 0.00 79 975.6
20260507014557 13 120 0.0 0.0 0.00 0.03 0.00 76 975.5
20260507013050 14 158 0.0 0.0 0.00 0.03 0.00 72 975.4
20260507011550 15 207 0.0 3.2 0.00 0.03 0.00 69 975.3
20260507010059 16 91 0.0 6.4 0.00 0.03 0.00 69 975.4
20260507004546 15 283 0.0 6.4 0.00 0.03 0.00 69 975.6
20260507003043 15 275 0.0 6.4 0.00 0.03 0.00 73 975.7
20260507001541 15 313 0.0 1.6 0.00 0.03 0.00 72 976.0
20260507000042 14 352 0.0 1.6 0.00 0.03 0.00 75 976.1
20260506234539 12 271 0.0 1.6 0.00 0.03 0.00 78 976.2
20260506233038 12 274 0.0 0.0 0.00 0.03 0.00 79 976.4
20260506231538 13 274 0.0 1.6 0.00 0.03 0.00 77 976.4
20260506230036 13 127 0.0 0.0 0.00 0.03 0.00 77 976.7
20260506224536 13 274 0.0 1.6 0.00 0.03 0.00 75 976.9
20260506223027 14 268 0.0 1.6 0.00 0.03 0.00 76 977.0
20260506221523 15 253 0.0 0.0 0.00 0.03 0.00 73 976.8
20260506220033 15 265 0.0 0.0 0.00 0.03 0.00 71 976.7
20260506214520 15 265 0.0 0.0 0.00 0.03 0.03 70 976.7
20260506213021 15 274 0.0 0.0 0.00 0.03 0.03 70 976.8
20260506211522 16 274 0.0 1.6 0.00 0.03 0.03 70 976.7
20260506210024 16 269 0.0 1.6 0.00 0.03 0.03 71 976.8
20260506204518 16 210 0.0 0.0 0.00 0.03 0.03 70 976.8
20260506203018 16 195 0.0 0.0 0.00 0.03 0.03 69 976.8
20260506201527 17 280 0.0 1.6 0.00 0.03 0.03 68 976.7
20260506200016 17 295 0.0 3.2 0.00 0.03 0.03 67 976.6
20260506194517 17 237 0.0 0.0 0.00 0.03 0.03 67 976.2
20260506193023 18 214 0.0 8.0 0.00 0.03 0.03 64 976.2
20260506191515 18 273 0.0 0.0 0.00 0.03 0.03 68 975.7
20260506190023 18 225 0.0 1.6 0.00 0.03 0.03 67 975.6
20260506184520 19 299 0.0 1.6 0.00 0.03 0.03 68 975.5
20260506183013 20 253 0.0 4.8 0.00 0.03 0.03 68 974.9
20260506181514 20 274 0.0 4.8 0.00 0.03 0.03 67 974.8
20260506180020 20 98 0.0 6.4 0.00 0.03 0.03 64 975.0
20260506174522 20 131 0.0 4.8 0.00 0.03 0.03 58 975.6
20260506173011 21 95 0.0 4.8 0.00 0.03 0.03 55 975.6
20260506171516 21 143 1.6 6.4 0.00 0.03 0.03 54 975.9
20260506170010 22 162 0.0 3.2 0.00 0.03 0.03 53 975.9
20260506164509 22 148 0.0 0.0 0.00 0.03 0.03 52 975.4
20260506163010 22 133 0.0 1.6 0.00 0.03 0.03 48 975.3
20260506161508 23 163 0.0 1.6 0.00 0.03 0.03 48 975.4
20260506160009 23 124 0.0 0.0 0.00 0.03 0.03 46 975.4
20260506154510 23 124 0.0 4.8 0.00 0.03 0.03 45 975.4
20260506153003 25 159 0.0 0.0 0.00 0.03 0.03 35 976.0
20260506151600 25 160 0.0 0.0 0.00 0.03 0.03 32 976.4
20260506150059 25 207 0.0 1.6 0.00 0.03 0.03 34 976.6
20260506144604 24 165 0.0 1.6 0.00 0.03 0.03 32 976.4
20260506143058 24 104 0.0 3.2 0.00 0.03 0.03 34 976.7